ZHONGXING-6E

Last updated on Sun Apr 12 2026 00:02:56 GMT+0000 (Coordinated Universal Time)

1 58253U 23172A 26101.47223512 -.00000360 00000+0 00000+0 0 9992 2 58253 0.0179 204.3771 0002590 180.8996 99.9405 1.00270613 8995
UTC large
Height (km)
Speed (km/s)
/
Latitude / Longitude
Inclination (degrees)
Orbital Period (minutes)
Azimuth
Elevation
Range (km)
Doppler Factor

Next 0 passes for location: London (51.5072 / 0.1276)

Sorry there are no passes over London.
ZHONGXING-6E